x

Ilm3 - 27 Miles Se Of Wrightsville Beach, Nc (41037) Weather Station

3:08pm - Fri 29th Jul 2016 All times are EDT. -4 hours from GMT.

  • Wind
    20mph, 27mph gusts
  • Sea Temp 84°f
  • Air Temp 85°f
  • Sea Pressure 1012.9mb
  • Ilm3 - 27 Miles Se Of Wrightsville Beach, Nc
  • Ilm3 - 27 Miles Se Of Wrightsville Beach, Nc

More Historic Weather Station data

Upgrade to MSW Pro to gain access to the past 30 days of data for over 8000 Wavebouys and Weather Stations around the globe.

Join Pro

Comparision Forecast

View Surf forecast
   
Fri 07/29 3:08pm 20 27 mph 1012.9mb 84f 85f
2:08pm 20 29 mph 1012.9mb 84f 85f
1:08pm 18 22 mph 1013.1mb 84f 85f
12:08pm 16 22 mph 1013.5mb 84f 85f
11:08am 18 22 mph 1013.7mb 84f 85f
10:08am 18 22 mph 1013.8mb 84f 85f
9:08am 18 22 mph 1013.9mb 84f 85f
8:08am 16 22 mph 1013.7mb 84f 85f
7:08am 18 22 mph 1014.3mb 84f 84f
6:08am 20 27 mph 1012.9mb 84f 84f
5:08am 20 27 mph 1012.7mb 84f 84f
4:08am 20 29 mph 1012.8mb 84f 85f
3:08am 20 27 mph 1013mb 84f 85f
2:08am 20 27 mph 1013.3mb 84f 85f
1:08am 20 27 mph 1013.1mb 84f 85f
12:08am 20 27 mph 1013.4mb 84f 85f
Thu 07/28 11:08pm 20 27 mph 1013.7mb 84f 85f
10:08pm 20 27 mph 1013.5mb 85f 85f
9:08pm 20 27 mph 1012.8mb 85f 85f
8:08pm 20 27 mph 1012.6mb 85f 85f
7:08pm 18 25 mph 1012.6mb 85f 86f
6:08pm 18 25 mph 1012.6mb 85f 86f
5:08pm 18 25 mph 1012.7mb 85f 86f
4:08pm 18 25 mph 1012.9mb 85f 86f
3:08pm 16 20 mph 1013.3mb 85f 86f
2:08pm 13 20 mph 1014.2mb 85f 86f
1:08pm 13 18 mph 1014.7mb 85f 85f
12:08pm 11 16 mph 1014.9mb 85f 85f
11:08am 9 13 mph 1015.1mb 85f 85f
10:08am 11 16 mph 1015.1mb 84f 85f
9:08am 13 16 mph 1015.3mb 84f 85f
8:08am 13 18 mph 1014.8mb 84f 85f
7:08am 16 22 mph 1014.4mb 84f 84f
6:08am 18 22 mph 1014.2mb 84f 84f
5:08am 18 25 mph 1013.9mb 84f 84f
4:08am 20 27 mph 1013.8mb 84f 84f
3:08am 18 22 mph 1014mb 84f 84f
2:08am 16 22 mph 1014.2mb 84f 84f
1:08am 16 20 mph 1014.6mb 84f 84f
12:08am 13 18 mph 1015.1mb 84f 84f
Wed 07/27 11:08pm 13 18 mph 1015.2mb 84f 84f
10:08pm 13 20 mph 1015.2mb 84f 84f
9:08pm 16 20 mph 1014.5mb 84f 85f
8:08pm 18 22 mph 1013.8mb 84f 85f
7:08pm 20 25 mph 1013.9mb 84f 85f
6:08pm 18 25 mph 1014mb 84f 85f
5:08pm 20 27 mph 1014mb 84f 85f
4:08pm 18 22 mph 1014.4mb 84f 85f
3:08pm 18 20 mph 1014.9mb 84f 85f
2:08pm 16 20 mph 1015.4mb 84f 85f
1:08pm 16 20 mph 1015.9mb 84f 85f
12:08pm 13 18 mph 1016.2mb 84f 84f
11:08am 13 18 mph 1016.2mb 84f 84f
10:08am 13 18 mph 1016mb 84f 84f
9:08am 16 20 mph 1016.3mb 84f 84f
8:08am 16 22 mph 1015.8mb 84f 84f
7:08am 18 22 mph 1015.8mb 84f 84f
6:08am 18 22 mph 1015.8mb 84f 84f
5:08am 20 25 mph 1015.5mb 84f 84f
4:08am 18 25 mph 1015.4mb 84f 84f
3:08am 18 22 mph 1015.7mb 84f 84f
2:08am 16 22 mph 1015.8mb 84f 84f
1:08am 16 20 mph 1016mb 84f 84f
12:08am 16 20 mph 1016.3mb 84f 84f
Tue 07/26 11:08pm 18 22 mph 1016.1mb 84f 84f
10:08pm 16 20 mph 1016mb 84f 84f
9:08pm 16 20 mph 1015.8mb 84f 84f
8:08pm 18 22 mph 1015.8mb 84f 84f
7:08pm 16 20 mph 1015.3mb 84f 85f
6:08pm 18 25 mph 1015mb 84f 85f
5:08pm 20 25 mph 1014.9mb 84f 85f
4:08pm 18 22 mph 1015.7mb 84f 85f
3:08pm 16 20 mph 1016.2mb 84f 84f
2:08pm 13 20 mph 1016.9mb 84f 84f
1:08pm 16 22 mph 1017.4mb 84f 84f
12:08pm 16 20 mph 1017.9mb 84f 84f
11:08am 18 22 mph 1018.1mb 84f 84f
10:08am 18 22 mph 1017.8mb 84f 84f
9:08am 16 20 mph 1017.9mb 84f 84f
8:08am 16 20 mph 1017.9mb 84f 84f
7:08am 16 20 mph 1017.6mb 84f 83f
6:08am 16 22 mph 1017.3mb 84f 83f
5:08am 18 22 mph 1016.8mb 84f 83f
4:08am 18 22 mph 1016.6mb 84f 84f
3:08am 18 25 mph 1016.7mb 84f 84f
2:08am 18 22 mph 1017.2mb 85f 84f
1:08am 18 22 mph 1017.9mb 85f 84f
12:08am 18 22 mph 1017.9mb 85f 84f
Mon 07/25 11:08pm 18 22 mph 1017.6mb 85f 84f
10:08pm 18 22 mph 1017.6mb 85f 84f
9:08pm 16 20 mph 1017.1mb 85f 85f